[[{"header":{"parameterUnit":"m.s-1","parameterCategory":1,"la1":30.2991,"la2":30.254,"lo1":-89.0895,"lo2":-89.0444,"dy":0.0017,"dx":0.0017,"nx":28,"ny":28,"refTime":"2024-05-15T03:00:00:Z","depth":0,"parameterNumber":2,"parameterNumberName":"U-component_of_WINDS"},"data":[0,0,0,0,0,0,0,0,0,0,0,0,0,0,0,0,0,0,0,0,0,0,0,0,0,0,0,0,0,0,0,0,0,0,0,0,0,0,0,0,0,0,0,0,0,0,0,0,0,0,0,0,0,0,0,0,0,0,-1.1186,-1.1184,0,-1.1088,-1.1087,-1.1086,-1.1047,-1.1047,-1.1047,-1.1047,-1.0944,-1.0941,-1.0938,0,0,0,0,0,0,0,0,0,0,0,0,0,-1.1336,-1.1333,-1.1186,-1.1184,-1.1183,-1.1088,-1.1087,-1.1085,-1.1047,-1.1047,-1.1047,-1.1048,-1.0945,-1.0941,-1.0937,0,0,0,0,0,0,0,0,0,0,0,0,0,-1.1258,-1.1332,-1.1186,-1.1152,-1.1149,-1.1088,-1.1087,-1.1085,-1.1047,-1.1047,-1.1047,-1.1048,-1.0946,-1.0941,-1.0937,-1.0902,0,0,-1.0923,-1.0921,0,0,0,0,0,0,0,0,-1.1262,-1.1252,-1.1159,-1.1155,-1.115,-1.108,-1.1102,-1.1023,-1.1046,-1.1085,-1.1047,-1.1048,-1.0988,-1.098,-1.0961,-1.0897,-1.0892,-1.0923,-1.092,-1.0918,-1.0917,0,0,0,0,0,0,0,-1.1267,-1.1256,-1.1147,-1.1157,-1.1152,-1.1141,-1.1131,-1.1087,-1.1036,-1.1082,-1.1079,-1.1068,-1.0986,-1.0966,-1.0958,-1.0891,-1.0923,-1.0919,-1.0916,-1.0914,-1.0793,-1.0792,0,0,0,0,0,0,-1.1279,-1.1261,-1.115,-1.1144,-1.1208,-1.1139,-1.1127,-1.1102,-1.1036,-1.1026,-1.1068,-1.1067,-1.0973,-1.0964,-1.0955,-1.0909,-1.0918,-1.0914,-1.0911,-1.0793,-1.0793,-1.0792,0,0,0,0,0,0,-1.1282,-1.1269,-1.1154,-1.1201,-1.1186,-1.1136,-1.1108,-1.11,-1.1079,-1.1026,-1.1016,-1.1056,-1.0973,-1.0961,-1.0915,-1.0905,-1.0912,-1.0908,-1.0794,-1.0793,-1.0793,-1.0818,0,0,0,0,0,0,-1.1287,-1.1271,-1.1257,-1.1202,-1.1184,-1.1117,-1.1108,-1.1098,-1.1072,-1.107,-1.1012,-1.1003,-1.0972,-1.0922,-1.0911,-1.0899,-1.0904,-1.0795,-1.0794,-1.0793,-1.0818,-1.0818,-1.0818,0,0,0,0,0,-1.1292,-1.1267,-1.1257,-1.1244,-1.1166,-1.1117,-1.1106,-1.1073,-1.1071,-1.1057,-1.1023,-1.1005,-1.0908,-1.0918,-1.0905,-1.0891,-1.0795,-1.0794,-1.0793,-1.0818,-1.0818,-1.0818,0,0,0,0,0,0,-1.1321,-1.1259,-1.1247,-1.1204,-1.1166,-1.111,-1.1091,-1.1074,-1.1035,-1.1034,-1.0993,-1.098,-1.0938,-1.091,-1.0922,-1.0854,-1.085,-1.0847,-1.0874,-1.0874,-1.0874,-1.0881,-1.0901,0,0,0,0,0,-1.1323,-1.129,-1.1237,-1.1203,-1.1185,-1.1142,-1.1119,-1.1097,-1.1055,-1.1039,-1.1001,-1.0961,-1.0921,-1.0896,-1.0857,-1.0814,-1.0801,-1.0798,-1.0798,-1.0799,-1.0796,-1.0771,-1.077,-1.0788,-1.0788,-1.0788,0,0,-1.1326,-1.1288,-1.1268,-1.1208,-1.1176,-1.1142,-1.1128,-1.1092,-1.1065,-1.1033,-1.0988,-1.0959,-1.0911,-1.0867,-1.0846,-1.0843,-1.0788,-1.0797,-1.0798,-1.0795,-1.077,-1.0768,-1.0767,-1.0788,-1.0788,-1.0788,0,0,-1.1312,-1.1281,-1.125,-1.1219,-1.1171,-1.1143,-1.1136,-1.1083,-1.1063,-1.1018,-1.0993,-1.096,-1.0893,-1.086,-1.0835,-1.0811,-1.0793,-1.08,-1.0801,-1.0778,-1.0776,-1.0775,-1.0766,-1.0763,-1.0797,-1.0797,-1.0797,0,-1.1321,-1.1269,-1.1235,-1.1201,-1.1175,-1.1146,-1.1114,-1.1085,-1.1027,-1.1009,-1.1007,-1.0923,-1.0889,-1.0837,-1.0832,-1.0812,-1.0802,-1.0805,-1.0779,-1.0777,-1.0775,-1.0767,-1.0764,-1.0798,-1.0798,-1.0798,-1.0798,0,-1.1282,-1.1246,-1.1226,-1.1173,-1.1145,-1.1112,-1.1073,-1.1048,-1.1029,-1.1001,-1.0955,-1.0914,-1.0866,-1.0852,-1.0832,-1.0797,-1.0797,-1.0788,-1.0783,-1.0775,-1.0766,-1.0763,-1.08,-1.0799,-1.0799,-1.0799,0,0,-1.1282,-1.1212,-1.1206,-1.1181,-1.1128,-1.1099,-1.1065,-1.102,-1.0999,-1.0961,-1.093,-1.0875,-1.0867,-1.0838,-1.0814,-1.0794,-1.0778,-1.0787,-1.0785,-1.0787,-1.0738,-1.0745,-1.0741,-1.0767,-1.0766,-1.0765,-1.0742,0,-1.1261,-1.12,-1.117,-1.1121,-1.1087,-1.106,-1.103,-1.0994,-1.0967,-1.0934,-1.0903,-1.0865,-1.0857,-1.0839,-1.0818,-1.0785,-1.0768,-1.0786,-1.0737,-1.0736,-1.0749,-1.0737,-1.0744,-1.0723,-1.0738,-1.0737,-1.0737,0,-1.1229,-1.1192,-1.114,-1.1092,-1.1077,-1.1051,-1.1007,-1.0976,-1.0934,-1.0916,-1.0885,-1.0863,-1.0825,-1.0824,-1.0771,-1.0785,-1.0763,-1.0744,-1.0742,-1.0735,-1.0735,-1.0729,-1.0716,-1.0713,-1.0731,-1.0732,-1.0732,0,-1.1234,-1.1172,-1.1133,-1.1113,-1.1056,-1.1038,-1.1013,-1.0972,-1.0947,-1.0909,-1.0892,-1.085,-1.0826,-1.0794,-1.076,-1.0763,-1.071,-1.0707,-1.0693,-1.0694,-1.0683,-1.0684,-1.0665,-1.067,-1.067,-1.067,-1.067,0,-1.1214,-1.1183,-1.1135,-1.1111,-1.1076,-1.1042,-1.1008,-1.098,-1.0944,-1.0914,-1.0888,-1.086,-1.0817,-1.0784,-1.0757,-1.0718,-1.0707,-1.0691,-1.0684,-1.0693,-1.0695,-1.0677,-1.0677,-1.0669,-1.067,-1.067,-1.067,0,-1.1213,-1.118,-1.1136,-1.1086,-1.1073,-1.1049,-1.1006,-1.0981,-1.0954,-1.0916,-1.0905,-1.0862,-1.0821,-1.0785,-1.073,-1.0712,-1.0672,-1.0663,-1.0686,-1.0682,-1.0671,-1.0672,-1.064,-1.0634,-1.0644,-1.0644,-1.0644,0,-1.1202,-1.1178,-1.1126,-1.1105,-1.1081,-1.1047,-1.1022,-1.0988,-1.0962,-1.0914,-1.0895,-1.0853,-1.0818,-1.0754,-1.0717,-1.0675,-1.0665,-1.0657,-1.0659,-1.0669,-1.0665,-1.0666,-1.0664,-1.0657,-1.0657,-1.0657,-1.0657,0,-1.1186,-1.1171,-1.1137,-1.1097,-1.1068,-1.1035,-1.1001,-1.0984,-1.0944,-1.0917,-1.0876,-1.0849,-1.0794,-1.0752,-1.0707,-1.068,-1.0662,-1.0657,-1.0652,-1.066,-1.0674,-1.0666,-1.0686,-1.0658,-1.0658,-1.0658,-1.0658,-1.0657,-1.1179,-1.1157,-1.1118,-1.108,-1.1052,-1.1021,-1.0995,-1.0966,-1.0931,-1.0885,-1.0867,-1.0826,-1.0785,-1.0723,-1.0696,-1.0662,-1.0659,-1.0651,-1.0649,-1.0647,-1.0649,-1.0681,-1.0654,-1.0654,-1.0654,-1.0654,-1.0654,0,-1.1161,-1.1135,-1.1101,-1.1055,-1.1026,-1.1013,-1.0975,-1.0951,-1.0915,-1.088,-1.0846,-1.0799,-1.0759,-1.072,-1.0677,-1.0658,-1.0649,-1.0648,-1.0649,-1.0643,-1.0655,-1.0664,-1.0657,-1.0657,-1.0657,-1.0657,-1.0657,-1.0657,-1.1148,-1.111,-1.1091,-1.1038,-1.1012,-1.0972,-1.0952,-1.0923,-1.0894,-1.0844,-1.0811,-1.0786,-1.0749,-1.0704,-1.0667,-1.0656,-1.0641,-1.0643,-1.063,-1.0642,-1.0642,-1.0642,-1.065,-1.0641,-1.0641,-1.0621,-1.0621,-1.0621]},{"header":{"parameterUnit":"m.s-1","parameterCategory":1,"la1":30.2991,"la2":30.254,"lo1":-89.0895,"lo2":-89.0444,"dy":0.0017,"dx":0.0017,"nx":28,"ny":28,"refTime":"2024-05-15T03:00:00:Z","depth":0,"parameterNumber":3,"parameterNumberName":"V-component_of_WINDS"},"data":[0,0,0,0,0,0,0,0,0,0,0,0,0,0,0,0,0,0,0,0,0,0,0,0,0,0,0,0,0,0,0,0,0,0,0,0,0,0,0,0,0,0,0,0,0,0,0,0,0,0,0,0,0,0,0,0,0,0,2.0655,2.0654,0,2.0547,2.0546,2.0545,2.0548,2.055,2.0551,2.0552,2.0439,2.0435,2.0431,0,0,0,0,0,0,0,0,0,0,0,0,0,2.0861,2.0857,2.0655,2.0654,2.0652,2.0547,2.0546,2.0544,2.0548,2.055,2.0551,2.0553,2.0441,2.0436,2.043,0,0,0,0,0,0,0,0,0,0,0,0,0,2.0764,2.0856,2.0655,2.0641,2.0639,2.0548,2.0546,2.0544,2.0547,2.055,2.0552,2.0554,2.0443,2.0436,2.043,2.0344,0,0,2.041,2.0407,0,0,0,0,0,0,0,0,2.077,2.0757,2.0645,2.0642,2.0639,2.0563,2.0577,2.0477,2.0547,2.0582,2.0552,2.0555,2.0479,2.0469,2.0444,2.0339,2.0334,2.0409,2.0405,2.0402,2.04,0,0,0,0,0,0,0,2.0776,2.0761,2.0612,2.0643,2.064,2.064,2.0628,2.0558,2.0519,2.0579,2.0579,2.0567,2.0478,2.045,2.0441,2.0332,2.0409,2.0403,2.0399,2.0397,2.0152,2.015,0,0,0,0,0,0,2.0786,2.0767,2.0616,2.0609,2.0711,2.0634,2.0622,2.0585,2.052,2.0512,2.0565,2.0567,2.0461,2.0449,2.0438,2.0333,2.0402,2.0396,2.0392,2.0155,2.0151,2.0149,0,0,0,0,0,0,2.0791,2.0773,2.062,2.0688,2.0668,2.0628,2.0588,2.0582,2.0555,2.0509,2.0502,2.0544,2.0462,2.0447,2.0368,2.0329,2.0393,2.0387,2.0158,2.0154,2.015,2.0124,0,0,0,0,0,0,2.0797,2.0774,2.0742,2.0687,2.0665,2.0552,2.0585,2.0578,2.0544,2.0546,2.0488,2.048,2.0463,2.0378,2.0361,2.0321,2.0382,2.0161,2.0156,2.0151,2.0128,2.012,2.0112,0,0,0,0,0,2.0804,2.0738,2.074,2.0722,2.0624,2.055,2.0537,2.0519,2.0541,2.0508,2.0478,2.0482,2.0336,2.0369,2.0351,2.0309,2.0163,2.0157,2.0152,2.0131,2.0121,2.0113,0,0,0,0,0,0,2.0788,2.0731,2.0732,2.0647,2.0604,2.0551,2.0508,2.0509,2.0457,2.0461,2.044,2.0427,2.0348,2.032,2.0358,2.0223,2.0252,2.0243,2.0243,2.0233,2.0226,2.0234,2.0376,0,0,0,0,0,2.0775,2.0721,2.0674,2.0603,2.0581,2.0549,2.0516,2.0506,2.0459,2.0441,2.0405,2.036,2.0304,2.0267,2.0213,2.0124,2.0112,2.0086,2.0078,2.0072,2.0064,2.0015,2.0003,2.013,2.013,2.013,0,0,2.0747,2.0709,2.0676,2.0599,2.0564,2.0508,2.0533,2.0472,2.0431,2.0431,2.0355,2.0327,2.0275,2.0191,2.0152,2.0165,2.0026,2.0065,2.0061,2.0055,2.0008,1.9996,1.9985,2.0126,2.0127,2.0127,0,0,2.0667,2.0633,2.057,2.0535,2.0483,2.0462,2.0447,2.0394,2.0376,2.0299,2.0299,2.0248,2.0152,2.0115,2.0083,1.999,1.9992,1.9973,1.9932,1.9885,1.9875,1.9866,1.9832,1.9821,1.9965,1.9965,1.9965,0,2.0638,2.0555,2.0538,2.0477,2.0443,2.0443,2.0379,2.0345,2.0277,2.0253,2.027,2.015,2.0114,2.0021,1.9999,1.9973,1.9955,1.9979,1.9878,1.9869,1.986,1.9828,1.9815,1.9963,1.9963,1.9963,1.9963,0,2.0522,2.0464,2.0419,2.0355,2.0316,2.0254,2.0227,2.019,2.0183,2.016,2.0082,2.004,1.9977,1.9954,1.9947,1.986,1.987,1.9883,1.9912,1.9846,1.9816,1.9803,1.996,1.9961,1.9961,1.9962,0,0,2.0428,2.0356,2.034,2.0311,2.0253,2.0207,2.0145,2.0085,2.0053,2.0007,1.9954,1.9873,1.9884,1.9848,1.9837,1.9795,1.9724,1.9812,1.9811,1.9797,1.9626,1.9617,1.9603,1.9725,1.9723,1.9721,1.963,0,2.0341,2.0232,2.0216,2.0119,2.0066,2.0065,2.0011,1.9969,1.9946,1.9897,1.9871,1.9814,1.9833,1.9812,1.9771,1.9741,1.9689,1.9748,1.9675,1.9673,1.9688,1.9587,1.9577,1.9494,1.9618,1.9616,1.9615,0,2.0226,2.0177,2.0076,2.0026,2.0003,1.9955,1.9898,1.9851,1.9804,1.979,1.9751,1.9745,1.968,1.9713,1.9623,1.9663,1.9632,1.9614,1.961,1.9602,1.964,1.9576,1.9467,1.9454,1.9596,1.9597,1.9599,0,2.0167,2.0077,2.0004,1.9979,1.9919,1.9886,1.9859,1.9814,1.9779,1.973,1.9707,1.965,1.9619,1.9575,1.9554,1.958,1.9465,1.9496,1.9451,1.9452,1.9427,1.9428,1.9311,1.9408,1.9408,1.9408,1.9408,0,2.0072,2.001,1.9977,1.9933,1.9863,1.9844,1.9776,1.975,1.971,1.966,1.9656,1.9609,1.9583,1.9532,1.9515,1.9443,1.9429,1.9416,1.9412,1.9416,1.9418,1.9395,1.94,1.9405,1.9406,1.9406,1.9407,0,1.9995,1.997,1.9891,1.9842,1.9828,1.9779,1.9736,1.9692,1.967,1.9607,1.9591,1.9555,1.9495,1.947,1.9395,1.9384,1.9302,1.9302,1.9318,1.9316,1.9273,1.9277,1.9136,1.9117,1.9227,1.9226,1.9225,0,1.9936,1.9888,1.9834,1.98,1.9773,1.9719,1.9684,1.9664,1.9627,1.957,1.9534,1.9474,1.9425,1.9329,1.9296,1.9239,1.9238,1.9193,1.923,1.9235,1.9237,1.924,1.9235,1.9186,1.9185,1.9184,1.9183,0,1.9833,1.9824,1.9773,1.9719,1.9677,1.9633,1.959,1.9563,1.9536,1.9495,1.9434,1.9396,1.9321,1.9261,1.9203,1.9175,1.9174,1.9172,1.9159,1.9162,1.9173,1.9166,1.9299,1.9175,1.9176,1.9176,1.9177,1.9177,1.9763,1.9721,1.9676,1.962,1.9586,1.9546,1.9503,1.9476,1.9425,1.9363,1.9354,1.9289,1.9243,1.9165,1.9134,1.9083,1.9094,1.9075,1.907,1.9065,1.9062,1.9182,1.9072,1.9072,1.9072,1.9073,1.9073,0,1.966,1.9632,1.958,1.9521,1.9477,1.9482,1.9434,1.9397,1.934,1.9298,1.925,1.918,1.9123,1.9086,1.9028,1.8994,1.8992,1.8979,1.8981,1.8975,1.9056,1.9073,1.8982,1.8982,1.8982,1.8982,1.8982,1.8982,1.9601,1.953,1.9515,1.9427,1.9399,1.9336,1.9309,1.9271,1.9238,1.916,1.9113,1.909,1.905,1.8989,1.8936,1.8927,1.8906,1.8892,1.8883,1.896,1.8969,1.8978,1.8994,1.8888,1.8888,1.8807,1.8806,1.8806]}]]